Temp
-4 -4 -5 -5 -5 -5 -5 -5 -5 -5 -5 -5 -5 -4 -4 -5 -5 -5 -5 -5 -6 -6 -6 -6 -6 -6 -6 -6 -6 -6 -6 -6 -6 -7 -7 -7 -7 -7 -7 -7 -7 -7
-4 -4 -5 -5 -5 -5 -5 -5 -5 -5 -5 -5 -5 -5 -5 -5 -5 -5 -5 -6 -6 -6 -6 -6 -6 -6 -6 -6 -6 -6 -6 -6 -6 -7 -7 -7 -7 -7 -7 -7 -7 -7
-4 -5 -5 -5 -5 -5 -5 -5 -5 -5 -5 -5 -5 -5 -5 -5 -5 -5 -6 -6 -6 -6 -6 -6 -6 -6 -6 -6 -6 -6 -6 -6 -6 -7 -7 -7 -7 -7 -7 -7 -7 -7
-4 -5 -5 -5 -5 -5 -5 -5 -5 -5 -5 -5 -5 -5 -6 -6 -6 -6 -6 -6 -6 -6 -6 -6 -6 -6 -6 -6 -6 -6 -6 -6 -6 -6 -7 -7 -7 -7 -7 -7 -7 -7
-4 -5 -5 -5 -5 -5 -5 -5 -5 -5 -5 -5 -5 -6 -6 -6 -6 -6 -6 -6 -6 -6 -6 -6 -6 -6 -6 -6 -6 -6 -6 -6 -6 -6 -6 -7 -7 -7 -7 -7 -7 -7
-4 -5 -5 -5 -5 -4 -5 -5 -5 -5 -5 -5 -5 -6 -6 -6 -6 -6 -6 -6 -6 -6 -6 -6 -6 -6 -6 -6 -6 -6 -6 -6 -6 -6 -6 -6 -6 -7 -7 -7 -7 -7
-4 -4 -5 -5 -4 -4 -4 -5 -5 -5 -5 -5 -5 -6 -6 -6 -6 -6 -6 -6 -6 -6 -6 -6 -6 -6 -6 -6 -6 -6 -6 -6 -6 -6 -6 -6 -6 -6 -6 -7 -7 -7
-4 -4 -5 -5 -4 -4 -4 -4 -5 -5 -5 -5 -5 -6 -6 -6 -6 -6 -6 -6 -6 -6 -6 -6 -6 -6 -6 -6 -6 -6 -6 -6 -6 -6 -6 -6 -6 -6 -6 -6 -7 -7
-4 -4 -4 -4 -4 -4 -4 -4 -4 -5 -5 -5 -5 -6 -6 -6 -6 -6 -6 -6 -6 -6 -6 -6 -6 -6 -6 -6 -6 -6 -6 -6 -6 -6 -6 -6 -6 -6 -6 -6 -7 -7
-4 -4 -4 -4 -4 -4 -4 -4 -4 -4 -4 -5 -5 -5 -6 -6 -6 -6 -6 -6 -6 -6 -6 -6 -6 -6 -6 -6 -6 -6 -6 -6 -6 -6 -6 -6 -6 -6 -6 -6 -6 -7
-4 -4 -4 -4 -4 -4 -4 -4 -4 -4 -4 -5 -5 -5 -5 -6 -6 -6 -6 -6 -6 -6 -6 -6 -6 -6 -6 -6 -6 -5 -6 -6 -6 -6 -6 -6 -6 -6 -7 -7 -7 -6
-4 -4 -4 -4 -4 -4 -4 -4 -4 -4 -4 -4 -5 -5 -5 -5 -6 -6 -6 -6 -6 -6 -6 -6 -6 -6 -6 -6 -5 -5 -6 -6 -6 -6 -6 -6 -6 -7 -7 -7 -7 -6
-5 -4 -4 -4 -4 -4 -4 -4 -4 -4 -4 -4 -4 -5 -5 -5 -5 -5 -6 -6 -6 -5 -5 -5 -5 -5 -5 -5 -5 -6 -6 -6 -6 -6 -6 -6 -6 -6 -7 -7 -7 -6
-5 -5 -5 -5 -5 -5 -4 -4 -4 -4 -4 -4 -4 -5 -5 -5 -5 -5 -5 -6 -5 -5 -5 -5 -5 -5 -5 -5 -6 -6 -6 -6 -6 -6 -6 -6 -6 -6 -6 -6 -6 -6
-5 -5 -5 -5 -5 -5 -5 -4 -4 -4 -4 -4 -4 -5 -5 -5 -5 -5 -5 -5 -5 -5 -5 -5 -5 -5 -5 -5 -6 -6 -6 -6 -6 -6 -6 -6 -6 -6 -6 -6 -6 -6
-5 -5 -5 -5 -5 -5 -5 -5 -4 -4 -4 -5 -5 -5 -5 -5 -5 -5 -5 -5 -5 -5 -5 -5 -5 -5 -5 -5 -5 -5 -5 -5 -5 -6 -6 -6 -6 -6 -6 -6 -6 -6
-5 -5 -5 -5 -5 -5 -5 -5 -5 -4 -5 -5 -5 -5 -5 -5 -5 -5 -5 -5 -5 -5 -5 -5 -5 -5 -5 -5 -5 -5 -5 -5 -5 -5 -5 -6 -6 -6 -6 -6 -6 -6
-5 -5 -5 -5 -5 -5 -5 -5 -5 -5 -5 -5 -5 -5 -5 -5 -5 -5 -5 -5 -5 -5 -5 -5 -5 -5 -5 -5 -5 -5 -5 -5 -5 -5 -5 -5 -5 -5 -6 -5 -5 -5
-5 -5 -5 -5 -5 -5 -5 -5 -5 -5 -5 -5 -5 -5 -5 -5 -5 -5 -5 -5 -5 -5 -5 -5 -5 -5 -5 -5 -5 -5 -5 -5 -5 -5 -5 -5 -5 -5 -5 -5 -5 -5
-5 -5 -5 -5 -5 -5 -5 -5 -5 -5 -5 -5 -5 -5 -5 -5 -5 -5 -5 -5 -5 -5 -5 -5 -5 -5 -5 -5 -5 -5 -5 -5 -5 -5 -5 -5 -5 -5 -5 -5 -5 -5
-5 -5 -5 -5 -5 -5 -5 -5 -5 -5 -5 -5 -5 -5 -5 -5 -5 -5 -5 -5 -5 -5 -5 -5 -5 -5 -5 -5 -5 -5 -5 -5 -5 -5 -5 -5 -5 -5 -5 -5 -5 -5
-5 -5 -5 -5 -5 -5 -5 -5 -5 -5 -5 -5 -5 -5 -5 -5 -5 -5 -5 -5 -5 -5 -5 -5 -5 -5 -5 -6 -6 -5 -5 -5 -5 -5 -5 -5 -5 -5 -5 -5 -5 -6
-5 -5 -5 -5 -5 -5 -6 -5 -5 -5 -5 -5 -5 -5 -5 -5 -5 -5 -5 -5 -5 -5 -5 -5 -5 -5 -6 -6 -6 -5 -5 -5 -5 -6 -6 -6 -6 -6 -5 -6 -6 -6
-5 -5 -5 -5 -5 -6 -6 -6 -5 -5 -5 -5 -5 -5 -5 -5 -5 -5 -5 -5 -5 -5 -5 -5 -6 -6 -6 -6 -5 -5 -5 -5 -5 -6 -6 -6 -6 -6 -6 -6 -6 -6
-5 -5 -5 -5 -5 -5 -6 -6 -6 -5 -5 -5 -5 -5 -6 -6 -6 -6 -6 -6 -6 -5 -5 -5 -6 -6 -6 -6 -6 -6 -6 -6 -6 -6 -6 -6 -6 -6 -6 -6 -6 -6
-6 -5 -5 -5 -5 -5 -6 -6 -5 -5 -5 -5 -6 -6 -6 -6 -6 -6 -6 -6 -6 -6 -6 -6 -6 -6 -6 -6 -6 -6 -6 -6 -6 -6 -6 -6 -7 -7 -7 -6 -6 -7
Height
5937 5939 5940 5941 5943 5944 5946 5947 5949 5950 5951 5952 5953 5955 5956 5957 5958 5959 5960 5961 5962 5962 5963 5964 5964 5964 5965 5965 5966 5966 5967 5967 5967 5967 5968 5968 5968 5968 5969 5969 5969 5969
5935 5937 5939 5941 5942 5943 5945 5946 5948 5949 5950 5951 5953 5954 5955 5956 5957 5958 5959 5960 5961 5962 5963 5964 5964 5965 5965 5966 5966 5967 5967 5968 5968 5968 5968 5968 5968 5969 5969 5969 5970 5970
5934 5936 5938 5939 5941 5942 5943 5945 5946 5948 5949 5951 5952 5953 5954 5956 5957 5957 5958 5960 5961 5962 5963 5964 5965 5965 5966 5966 5967 5968 5968 5968 5968 5968 5968 5969 5969 5969 5969 5970 5970 5970
5933 5935 5937 5938 5939 5940 5942 5944 5945 5947 5948 5950 5951 5952 5953 5955 5956 5957 5958 5959 5960 5961 5963 5964 5965 5965 5966 5967 5968 5968 5968 5968 5968 5969 5969 5969 5969 5969 5969 5969 5970 5970
5932 5934 5935 5936 5938 5939 5941 5943 5944 5946 5947 5949 5950 5951 5952 5953 5955 5956 5957 5958 5959 5961 5962 5963 5964 5965 5966 5967 5968 5968 5968 5968 5968 5968 5968 5969 5969 5969 5969 5969 5969 5970
5930 5932 5933 5935 5936 5938 5940 5942 5943 5944 5946 5947 5949 5950 5951 5952 5954 5955 5956 5957 5958 5960 5961 5963 5964 5965 5966 5967 5967 5968 5968 5968 5968 5968 5968 5968 5968 5969 5969 5969 5969 5969
5928 5930 5931 5933 5935 5936 5938 5940 5941 5943 5944 5946 5948 5949 5950 5952 5953 5954 5955 5956 5958 5959 5960 5962 5963 5964 5965 5966 5967 5967 5968 5968 5968 5968 5968 5968 5968 5968 5969 5969 5969 5968
5925 5927 5929 5931 5933 5935 5936 5938 5940 5941 5943 5944 5946 5948 5949 5950 5951 5953 5954 5955 5956 5958 5959 5961 5962 5963 5964 5965 5966 5966 5967 5967 5967 5967 5967 5967 5968 5968 5968 5968 5968 5968
5923 5926 5928 5929 5931 5933 5934 5936 5938 5939 5941 5943 5945 5946 5948 5949 5950 5952 5953 5954 5955 5957 5958 5959 5961 5962 5963 5964 5964 5965 5966 5966 5966 5966 5966 5966 5967 5967 5968 5968 5968 5968
5921 5924 5926 5928 5930 5931 5933 5934 5936 5937 5939 5941 5942 5944 5946 5947 5949 5950 5952 5953 5954 5955 5957 5958 5959 5960 5961 5962 5963 5964 5964 5964 5965 5965 5965 5965 5965 5966 5967 5967 5967 5967
5919 5922 5924 5926 5928 5929 5931 5932 5933 5935 5937 5939 5940 5942 5944 5945 5947 5949 5950 5952 5953 5954 5955 5956 5957 5959 5960 5961 5962 5962 5963 5963 5963 5963 5963 5964 5964 5964 5965 5966 5966 5966
5917 5920 5922 5924 5926 5928 5929 5930 5932 5933 5935 5936 5938 5940 5942 5943 5945 5947 5948 5950 5951 5952 5953 5955 5956 5957 5958 5959 5960 5961 5962 5962 5962 5962 5962 5962 5963 5963 5964 5964 5965 5965
5915 5918 5920 5922 5924 5925 5927 5929 5930 5932 5933 5934 5936 5938 5940 5941 5943 5945 5947 5948 5949 5950 5952 5953 5954 5956 5957 5958 5959 5959 5960 5960 5960 5960 5960 5960 5961 5961 5962 5963 5963 5964
5912 5914 5917 5919 5921 5922 5924 5926 5928 5930 5931 5932 5934 5936 5938 5939 5941 5943 5944 5945 5947 5948 5950 5951 5953 5954 5955 5956 5957 5958 5958 5959 5959 5959 5959 5959 5959 5960 5961 5961 5962 5962
5909 5911 5913 5915 5917 5919 5922 5924 5926 5928 5929 5930 5932 5934 5935 5937 5938 5940 5942 5943 5945 5946 5948 5949 5951 5952 5953 5954 5955 5956 5956 5957 5957 5957 5958 5958 5958 5958 5959 5960 5960 5961
5906 5908 5910 5912 5914 5917 5919 5921 5923 5925 5927 5928 5930 5932 5933 5935 5936 5938 5940 5941 5942 5944 5946 5948 5949 5950 5951 5952 5953 5954 5954 5955 5955 5956 5956 5956 5957 5957 5957 5958 5959 5959
5904 5906 5907 5909 5911 5913 5916 5918 5920 5922 5924 5926 5928 5929 5931 5932 5934 5936 5937 5939 5940 5942 5944 5946 5947 5948 5949 5950 5951 5952 5953 5953 5954 5954 5954 5955 5955 5955 5956 5956 5957 5958
5901 5903 5905 5906 5908 5911 5913 5915 5917 5919 5921 5924 5925 5927 5929 5930 5932 5934 5935 5937 5938 5940 5942 5943 5945 5946 5947 5948 5949 5950 5951 5951 5952 5952 5952 5953 5953 5954 5954 5955 5955 5956
5899 5901 5903 5904 5906 5908 5910 5912 5914 5917 5919 5921 5923 5924 5926 5928 5930 5932 5933 5934 5936 5938 5940 5941 5942 5944 5945 5946 5947 5948 5949 5950 5950 5950 5951 5951 5952 5952 5952 5953 5953 5954
5896 5898 5900 5902 5904 5905 5907 5909 5912 5914 5916 5918 5920 5922 5924 5926 5928 5929 5931 5933 5934 5936 5937 5939 5940 5942 5943 5944 5945 5946 5947 5948 5949 5949 5949 5950 5950 5950 5951 5951 5951 5952
5894 5896 5898 5899 5901 5903 5905 5907 5909 5911 5913 5915 5917 5919 5921 5923 5925 5927 5928 5930 5932 5934 5935 5936 5938 5939 5940 5942 5943 5944 5945 5946 5947 5947 5947 5948 5948 5948 5949 5949 5950 5950
5892 5893 5895 5897 5898 5900 5903 5905 5907 5909 5911 5912 5914 5916 5918 5920 5922 5924 5926 5928 5930 5931 5933 5934 5935 5937 5938 5939 5940 5942 5943 5944 5945 5945 5945 5946 5946 5946 5947 5947 5948 5949
5889 5890 5892 5894 5895 5898 5900 5903 5905 5907 5908 5909 5911 5913 5915 5917 5919 5921 5923 5925 5927 5929 5931 5932 5933 5934 5936 5937 5938 5939 5941 5942 5943 5943 5943 5944 5944 5944 5945 5945 5946 5947
5886 5887 5889 5891 5893 5895 5898 5900 5902 5903 5905 5906 5908 5910 5912 5914 5916 5918 5920 5922 5924 5926 5928 5929 5930 5931 5933 5934 5936 5937 5939 5940 5940 5941 5941 5942 5941 5942 5943 5943 5944 5944
5882 5884 5886 5888 5890 5892 5894 5896 5898 5900 5901 5903 5905 5907 5909 5911 5913 5915 5918 5920 5921 5923 5925 5926 5927 5929 5931 5932 5933 5935 5936 5937 5938 5939 5939 5939 5939 5939 5940 5941 5941 5942
5880 5881 5883 5885 5887 5889 5891 5893 5894 5896 5898 5900 5902 5904 5906 5909 5911 5913 5915 5917 5918 5920 5922 5923 5924 5926 5928 5929 5931 5932 5934 5935 5936 5937 5937 5937 5936 5937 5937 5938 5939 5939
Wind_Speed
25 23 22 22 22 20 18 17 17 17 17 17 17 16 15 15 15 14 14 13 13 14 13 13 13 12 12 11 11 11 10 10 9 8 8 7 6 5 5 4 4 4
26 24 24 23 23 21 20 19 18 18 18 17 16 15 15 16 16 16 15 15 15 15 15 14 14 13 13 13 12 12 11 10 9 8 7 7 6 5 4 4 3 3
27 26 25 25 24 23 22 20 19 19 19 17 16 15 15 16 17 17 17 17 18 17 17 16 15 15 14 13 12 11 10 9 8 7 6 5 5 4 4 3 3 2
28 26 27 27 26 25 23 22 21 20 19 18 16 16 16 17 18 18 18 19 20 19 18 16 15 13 12 10 9 8 7 6 5 5 4 4 3 3 2 2 1 0
29 28 29 29 28 26 24 22 22 21 19 19 18 17 18 19 19 20 21 21 21 19 18 15 13 11 9 8 7 6 6 6 6 6 6 6 6 5 4 3 3 2
31 30 30 30 28 27 25 24 24 22 21 20 19 19 19 20 21 22 23 22 21 19 17 14 12 9 8 7 6 6 6 7 7 7 7 8 8 7 6 6 5 4
33 32 32 31 29 27 26 26 25 23 22 21 20 20 21 21 22 23 23 23 21 19 16 14 11 9 7 7 7 7 7 7 8 8 9 9 9 9 8 7 7 7
35 34 34 33 31 29 28 27 25 24 24 22 21 22 22 22 23 24 23 22 21 19 16 14 12 9 8 8 8 8 8 9 9 10 10 10 10 10 9 8 8 9
36 34 34 34 32 30 29 28 27 27 25 24 23 23 24 23 24 24 24 23 21 19 17 15 13 11 10 9 9 9 9 9 10 10 10 11 11 11 9 9 10 10
37 35 35 34 33 31 30 30 29 29 27 26 25 25 25 25 25 25 25 23 22 20 18 17 15 13 11 11 10 9 9 10 10 11 11 12 13 12 11 10 11 10
37 36 36 35 34 33 32 31 31 30 29 28 27 26 27 27 26 26 26 25 23 22 20 19 16 14 12 12 11 10 10 10 11 12 13 13 13 13 12 12 12 11
37 36 36 36 36 35 34 33 32 32 31 30 29 28 28 28 28 27 27 26 26 24 22 20 17 15 13 13 11 10 10 11 12 14 15 15 14 14 14 13 13 11
36 37 37 37 37 36 35 34 33 33 33 32 31 30 30 29 29 28 28 28 27 26 23 21 18 16 14 13 12 11 11 12 13 14 15 16 15 15 15 14 13 13
35 37 37 38 38 38 37 35 34 34 34 34 33 32 31 31 31 30 30 30 28 26 24 21 18 16 15 15 13 13 13 13 14 14 15 15 15 15 15 14 14 13
34 36 37 38 39 39 38 37 35 35 35 35 34 33 33 33 32 32 31 30 29 27 25 22 19 18 17 16 15 14 14 14 13 14 14 14 14 15 15 15 14 14
34 34 36 38 39 39 39 38 37 36 35 35 34 34 34 34 34 33 32 31 30 28 25 22 21 20 19 18 16 15 15 14 13 13 14 14 13 14 14 14 14 14
35 34 35 37 38 39 39 39 38 37 36 35 35 35 35 35 35 34 33 33 31 29 26 23 22 22 21 19 17 16 15 14 14 14 13 13 13 13 14 14 14 14
36 35 36 36 37 38 39 39 39 38 37 35 35 35 35 35 35 35 35 34 32 30 27 25 23 23 22 20 18 17 16 15 14 14 14 13 13 13 13 14 14 14
37 36 36 36 36 37 38 39 39 38 36 35 35 35 35 35 35 35 35 35 33 31 28 27 25 24 22 21 20 18 16 15 15 15 14 14 13 13 13 13 14 14
37 37 36 37 37 37 38 38 38 37 36 35 35 35 34 35 35 35 35 35 34 32 30 29 27 25 23 22 21 19 17 16 16 16 15 14 14 13 13 13 14 14
36 36 36 37 37 38 38 37 37 37 36 36 35 35 34 34 35 35 35 34 33 33 31 30 28 26 24 23 22 21 18 17 16 16 16 15 14 14 14 14 14 14
35 36 36 37 37 38 37 37 37 37 37 36 36 35 35 35 35 35 34 34 33 33 32 30 28 27 25 24 23 22 20 18 17 17 16 16 15 15 15 15 15 15
34 35 35 36 37 37 37 36 36 37 37 37 36 35 34 34 34 34 34 33 33 33 31 30 29 28 26 25 25 24 21 19 18 17 17 16 16 16 16 15 15 16
33 34 35 36 36 36 36 36 36 36 37 36 35 34 34 34 34 34 34 33 33 32 32 31 30 29 27 26 26 24 22 20 19 18 17 16 17 17 16 16 16 17
33 33 35 35 35 35 36 36 36 36 36 35 34 34 34 34 34 33 33 33 33 32 31 31 31 30 28 27 26 25 23 22 21 20 18 17 17 17 17 16 17 18
33 33 34 34 34 35 35 36 36 36 36 34 33 34 34 33 33 32 32 32 32 32 31 31 31 31 29 27 26 25 24 23 22 21 20 19 19 18 18 18 18 20
Wind_Direction
194 189 187 188 190 192 192 191 191 191 192 195 197 197 196 196 196 194 190 184 179 176 174 172 170 166 161 157 154 155 157 161 165 168 169 168 169 169 170 172 172 174
197 192 190 191 193 194 194 194 192 193 194 196 197 195 195 196 195 191 186 179 173 169 165 161 157 152 147 143 142 142 144 147 149 151 152 150 148 145 139 132 130 141
199 194 193 195 196 197 196 195 195 196 197 196 194 191 192 194 192 188 180 172 166 162 159 155 150 147 144 142 142 143 145 148 151 152 153 153 150 145 137 125 111 107
201 196 196 198 199 200 198 195 196 198 198 196 193 190 190 191 189 183 175 168 165 163 161 159 157 156 155 155 157 161 168 177 183 187 194 202 201 192 185 177 151 106
203 199 200 201 202 202 200 197 199 199 199 198 194 190 189 189 187 181 174 171 170 169 169 169 169 170 171 172 176 185 199 212 220 226 233 240 241 238 236 236 239 255
206 202 202 203 203 203 201 200 201 200 199 199 194 190 192 191 187 182 178 177 176 176 177 179 180 182 183 183 187 196 211 225 233 237 242 248 252 251 250 250 251 256
207 205 204 205 205 204 202 202 202 201 201 200 195 193 195 194 190 187 185 183 182 182 184 187 190 193 195 196 198 204 215 229 236 241 246 251 255 256 257 258 258 260
210 207 207 207 206 205 204 204 203 203 204 201 197 196 198 197 195 193 191 188 187 188 191 195 198 203 208 211 211 213 221 232 241 246 249 252 255 258 259 257 259 263
213 211 210 210 209 207 206 205 204 205 205 202 199 199 199 200 199 198 196 194 193 195 199 204 208 211 216 221 223 224 229 239 247 253 255 256 258 261 259 256 258 263
215 213 213 214 213 210 208 206 206 207 206 204 203 201 201 202 202 201 200 199 199 203 207 212 216 218 221 224 227 233 241 248 254 259 261 261 262 264 261 256 259 263
218 216 216 217 216 215 212 209 208 208 208 207 205 203 202 204 204 202 202 203 206 210 214 217 220 222 225 227 230 238 247 253 258 261 264 264 264 265 263 259 261 264
221 219 219 219 219 219 217 214 212 211 210 210 207 205 205 205 205 204 205 207 211 215 217 220 223 226 228 230 234 242 248 252 257 261 265 267 266 266 265 263 265 267
222 222 221 221 221 222 221 219 216 214 214 213 210 208 207 207 207 207 208 211 215 217 219 222 226 228 231 233 237 243 247 251 255 260 266 270 270 270 268 267 268 269
222 222 222 222 223 223 224 222 220 218 218 217 214 211 209 209 209 209 211 214 218 220 221 224 228 231 232 234 238 242 246 252 257 263 268 272 274 274 272 270 269 269
221 222 222 223 223 224 225 225 224 222 222 221 219 215 213 212 212 212 214 217 220 222 224 226 230 233 233 234 238 242 247 253 260 265 269 271 274 274 273 271 269 267
222 222 223 224 224 225 226 226 226 225 225 225 223 220 217 215 215 215 216 219 222 224 226 226 230 232 233 234 238 242 248 254 260 264 266 267 269 270 269 268 268 267
224 224 224 224 225 225 226 227 227 227 227 227 227 225 222 220 218 218 219 221 224 226 227 228 230 232 234 237 240 244 249 255 259 262 263 263 264 263 262 264 265 265
227 226 226 226 225 225 226 227 228 228 228 229 229 228 227 224 222 221 222 224 226 227 229 230 231 232 235 239 243 246 250 255 258 261 262 262 260 259 260 261 260 260
230 229 229 229 227 226 227 227 227 229 229 230 231 231 230 228 226 225 225 226 228 229 231 232 233 234 237 242 245 248 252 255 258 260 263 264 264 262 262 260 257 253
231 231 231 231 230 229 228 227 227 228 229 230 231 232 232 231 229 228 228 228 229 231 233 234 235 236 239 243 248 250 252 255 257 261 265 268 268 267 263 259 255 249
232 232 233 233 233 232 230 229 228 228 229 230 231 232 232 232 231 230 230 230 231 232 233 235 237 238 241 245 248 251 252 254 257 261 265 268 270 269 266 260 254 248
233 233 233 233 234 234 233 231 230 229 230 231 231 231 232 232 232 231 231 231 232 232 234 237 238 240 242 245 248 251 252 254 256 259 263 267 269 270 267 263 256 248
235 233 232 232 232 233 234 233 232 232 232 232 232 232 232 232 232 231 231 232 233 233 234 237 238 240 242 245 247 250 252 253 254 258 262 266 269 269 269 265 258 250
237 233 231 231 231 232 233 234 234 234 234 234 233 232 231 231 230 230 231 232 234 234 235 237 238 240 242 245 247 249 251 252 254 257 262 265 268 269 268 265 258 251
237 233 230 230 230 230 232 233 234 234 235 235 234 232 230 229 229 230 231 234 235 236 237 237 239 241 243 245 246 249 251 252 255 258 262 265 266 267 266 263 257 253
238 235 231 230 230 230 231 233 234 235 235 235 233 231 229 228 229 231 233 235 237 237 237 238 240 242 244 246 247 249 252 254 257 260 262 263 263 264 263 260 256 253